Flag Weather past 2 weeks in Macon, Georgia, U.S.A.

Now
64 °F

Sunny.


Feels Like: 64 °F
Forecast: 27 / 60 °F
Wind: 6 mph from Southwest

Location: Middle Georgia Regional Airport

Current Time: Nov 20, 2014 at 5:03:57 PM

Latest Report: Nov 20, 2014 at 3:53 PM


Visibility: 10 mi

Pressure: 30.17 "Hg

Humidity: 40%

Dew point: 39 °F

Location of MaconLocation

Historic Weather in Macon — Graph

°F

Macon temperature yesterday

Maximum temperature yesterday: 50 °F (at 3:53 PM)
Minimum temperature yesterday: 19 °F (at 5:53 AM)
Average temperature yesterday: 32 °F

Past Weeks' High & Low Weather Summary

 TemperatureHumidityPressure
High77 °F (Nov 6, 11:53 AM)100% (Nov 5, 8:53 PM)30.48 "Hg (Nov 5, 8:53 PM)
Low19 °F (Nov 19, 5:53 AM)20% (Nov 19, 3:53 PM)29.74 "Hg (Nov 17, 8:53 AM)
Average48 °F70%30.11 "Hg
* Reported Nov 5 3:53 PM — Nov 20 3:53 PM, Macon, Weather by CustomWeather, © 2014

Note: Actual official high and low records may vary slightly from our data, if they occured in-between our weather recording intervals... More about our weather records

Advertising

Macon weather history for previous 24 hours

 ConditionsComfort  
Time TempWeatherWind HumidityBarometerVisibility
3:53 PM
Nov 20
64 °FSunny.6 mph40%30.17 "Hg10 mi
2:53 PM65 °FSunny.13 mph39%30.18 "Hg10 mi
1:53 PM64 °FSunny.5 mph41%30.19 "Hg10 mi
12:53 PM63 °FSunny.12 mph43%30.22 "Hg10 mi
11:53 AM61 °FSunny.9 mph46%30.26 "Hg10 mi
10:53 AM56 °FSunny.9 mph47%30.29 "Hg10 mi
9:53 AM48 °FSunny.3 mph52%30.30 "Hg10 mi
8:53 AM38 °FSunny.No wind70%30.29 "Hg10 mi
7:53 AM28 °FSunny.No wind93%30.29 "Hg10 mi
6:53 AM25 °FClear.No wind92%30.28 "Hg10 mi
5:53 AM25 °FClear.5 mph100%30.27 "Hg10 mi
4:53 AM26 °FClear.No wind88%30.27 "Hg10 mi
3:53 AM25 °FClear.No wind92%30.29 "Hg10 mi
2:53 AM27 °FClear.No wind85%30.30 "Hg10 mi
1:53 AM26 °FClear.No wind81%30.31 "Hg10 mi
12:53 AM33 °FClear.No wind56%30.31 "Hg10 mi
11:53 PM
Nov 19
30 °FClear.6 mph66%30.33 "Hg10 mi
10:53 PM28 °FClear.No wind78%30.33 "Hg10 mi
9:53 PM29 °FClear.No wind75%30.33 "Hg10 mi
8:53 PM31 °FClear.No wind64%30.32 "Hg10 mi
7:53 PM32 °FClear.No wind66%30.32 "Hg10 mi
5:53 PM44 °FClear.No wind29%30.30 "Hg10 mi
Weather by CustomWeather, © 2014

See weather overviewHow to use our weather pages